Date/Time,Expocode,Latitude,Longitude,Depth,version,SOCAT_DOI,QC_Flag,P_sal,Temp,Temperature of Equilibration,Atmospheric Pressure,Equilibrator Pressure (relative),WOA_SSS,NCEP_SLP,ETOPO2_depth,dist_to_land,GVCO2,CO2 Mole Fraction,xCO2water_SST_dry,pCO2 In Water - Equilibrator Temperature,pCO2,fCO2water_equ_wet,fCO2water_SST_wet,fCO2,fCO2rec_src,fCO2  QC Flag,pCO2  QC Flag,P_sal  QC Flag,Temp  QC Flag
2017-04-09T02:58:53.000Z,26NA20170409,66.848,-53.816,,6.0N,10.1594/PANGAEA.891536,B,,,,,,35.0,1009.4,233.0,27.0,413.158,,,,,,,,0,9,9,9,9
2017-04-09T03:03:22.000Z,26NA20170409,66.829,-53.839,,6.0N,10.1594/PANGAEA.891536,B,,-0.977,-0.39,1006.98,1010.2,35.0,1009.4,276.0,29.0,413.157,,,,,,,,0,9,9,9,9
2017-04-09T03:08:14.000Z,26NA20170409,66.808,-53.864,,6.0N,10.1594/PANGAEA.891536,B,,-1.013,-0.56,1006.87,1009.8,35.0,1009.4,322.0,29.0,413.157,,,,,,,,0,9,9,9,9
2017-04-09T03:12:42.000Z,26NA20170409,66.789,-53.885,,6.0N,10.1594/PANGAEA.891536,B,,-1.132,-0.69,1006.81,1009.9,35.0,1009.4,370.0,29.0,413.156,,,,,,,,0,9,9,9,9
2017-04-09T03:17:10.000Z,26NA20170409,66.769,-53.898,,6.0N,10.1594/PANGAEA.891536,B,,-1.059,-0.73,1006.73,1009.7,35.0,1009.4,378.0,29.0,413.156,,,,,,,,0,9,9,9,9
2017-04-09T03:21:38.000Z,26NA20170409,66.75,-53.91,,6.0N,10.1594/PANGAEA.891536,B,,-1.302,-0.69,1006.47,1009.5,35.0,1009.4,390.0,28.0,413.155,,,,,,,,0,9,9,9,9
2017-04-09T03:26:05.000Z,26NA20170409,66.73,-53.921,,6.0N,10.1594/PANGAEA.891536,B,,-1.463,-1.06,1006.55,1009.6,35.0,1009.4,374.0,28.0,413.155,,,,,,,,0,9,9,9,9
2017-04-09T03:30:33.000Z,26NA20170409,66.71,-53.931,,6.0N,10.1594/PANGAEA.891536,B,,-1.477,-1.08,1006.59,1009.5,35.0,1009.4,333.0,27.0,413.154,,,,,,,,0,9,9,9,9
2017-04-09T03:32:00.000Z,26NA20170409,66.703,-53.935,,6.0N,10.1594/PANGAEA.891536,B,,-1.491,-1.08,1006.53,1009.5,35.0,1009.4,306.0,27.0,413.154,,,,,,,,0,9,9,9,9
2017-04-09T03:33:29.000Z,26NA20170409,66.696,-53.938,,6.0N,10.1594/PANGAEA.891536,B,,-1.455,-1.11,1006.53,1009.4,35.0,1009.4,280.0,27.0,413.154,,,,,,,,0,9,9,9,9
2017-04-09T03:34:57.000Z,26NA20170409,66.689,-53.942,,6.0N,10.1594/PANGAEA.891536,B,,-1.426,-1.08,1006.51,1009.5,35.0,1009.4,253.0,27.0,413.154,,,,,,,,0,9,9,9,9
2017-04-09T03:36:25.000Z,26NA20170409,66.683,-53.946,,6.0N,10.1594/PANGAEA.891536,B,,-1.4,-1.03,1006.48,1009.4,35.0,1009.4,227.0,27.0,413.153,,,,,,,,0,9,9,9,9
2017-04-09T03:41:19.000Z,26NA20170409,66.66,-53.959,,6.0N,10.1594/PANGAEA.891536,B,,-1.258,-0.99,1006.32,1009.3,35.0,1009.4,171.0,27.0,413.153,338.6,,,331.6,,330.1,330.123,4,2,9,9,9
2017-04-09T03:42:50.000Z,26NA20170409,66.653,-53.963,,6.0N,10.1594/PANGAEA.891536,B,,-1.018,-0.83,1006.29,1009.2,35.0,1009.4,153.0,26.0,413.152,337.8,,,331.9,,330.5,330.427,4,2,9,9,9
2017-04-09T03:44:21.000Z,26NA20170409,66.646,-53.967,,6.0N,10.1594/PANGAEA.891536,B,,-0.806,-0.55,1006.32,1009.2,35.0,1009.4,149.0,26.0,413.152,339.2,,,332.3,,330.9,330.829,4,2,9,9,9
2017-04-09T03:45:52.000Z,26NA20170409,66.639,-53.972,,6.0N,10.1594/PANGAEA.891536,B,,-0.806,-0.46,1006.27,1009.1,35.0,1009.4,158.0,26.0,413.152,343.5,,,335.2,,333.7,333.717,4,2,9,9,9
2017-04-09T03:47:22.000Z,26NA20170409,66.633,-53.976,,6.0N,10.1594/PANGAEA.891536,B,,-0.819,-0.42,1006.2,1009.1,35.0,1009.4,166.0,26.0,413.152,346.5,,,337.3,,335.8,335.807,4,2,9,9,9
2017-04-09T03:48:53.000Z,26NA20170409,66.626,-53.979,,6.0N,10.1594/PANGAEA.891536,B,,-0.808,-0.44,1006.1,1009.1,35.0,1009.4,173.0,26.0,413.152,348.2,,,339.4,,337.9,337.898,4,2,9,9,9
2017-04-09T03:50:24.000Z,26NA20170409,66.619,-53.983,,6.0N,10.1594/PANGAEA.891536,B,,-1.029,-0.56,1006.14,1008.9,35.0,1009.4,181.0,26.0,413.152,348.6,,,338.4,,336.9,336.898,4,2,9,9,9
2017-04-09T03:51:56.000Z,26NA20170409,66.612,-53.987,,6.0N,10.1594/PANGAEA.891536,B,,-1.124,-0.69,1006.1,1008.9,35.0,1009.4,187.0,26.0,413.151,347.5,,,337.8,,336.3,336.299,4,2,9,9,9
2017-04-09T03:53:26.000Z,26NA20170409,66.605,-53.99,,6.0N,10.1594/PANGAEA.891536,B,,-1.147,-0.78,1006.12,1009.1,35.0,1009.4,191.0,26.0,413.151,345.8,,,337.1,,335.6,335.601,4,2,9,9,9
2017-04-09T03:54:57.000Z,26NA20170409,66.598,-53.994,,6.0N,10.1594/PANGAEA.891536,B,,-1.43,-0.86,1006.09,1009.0,35.0,1009.4,194.0,26.0,413.151,343.8,,,332.3,,330.9,330.817,4,2,9,9,9
2017-04-09T03:56:28.000Z,26NA20170409,66.591,-53.998,,6.0N,10.1594/PANGAEA.891536,B,,-1.536,-1.12,1006.07,1009.0,35.0,1009.4,197.0,25.0,413.151,341.6,,,332.4,,330.9,330.914,4,2,9,9,9
2017-04-09T03:57:58.000Z,26NA20170409,66.584,-54.002,,6.0N,10.1594/PANGAEA.891536,B,,-1.548,-1.16,1006.11,1009.1,34.089,1009.4,199.0,25.0,413.151,338.9,,,330.2,,328.7,328.724,4,2,9,9,9
2017-04-09T03:59:29.000Z,26NA20170409,66.577,-54.005,,6.0N,10.1594/PANGAEA.891536,B,,-1.462,-1.17,1006.12,1009.0,34.089,1009.4,200.0,25.0,413.15,337.0,,,329.7,,328.2,328.228,4,2,9,9,9
2017-04-09T04:01:19.000Z,26NA20170409,66.569,-54.01,,6.0N,10.1594/PANGAEA.891536,B,,-1.424,-1.07,1006.13,1009.1,34.089,1009.4,200.0,25.0,413.15,336.7,,,328.5,,327.0,327.034,4,2,9,9,9
2017-04-09T04:02:50.000Z,26NA20170409,66.562,-54.014,,6.0N,10.1594/PANGAEA.891536,B,,-1.323,-0.96,1006.14,1008.9,34.089,1009.4,200.0,25.0,413.15,337.2,,,328.8,,327.4,327.335,4,2,9,9,9
2017-04-09T04:04:21.000Z,26NA20170409,66.555,-54.018,,6.0N,10.1594/PANGAEA.891536,B,,-1.111,-0.88,1006.08,1008.9,34.089,1009.4,199.0,25.0,413.15,338.0,,,331.4,,330.0,329.928,4,2,9,9,9
2017-04-09T04:05:51.000Z,26NA20170409,66.548,-54.022,,6.0N,10.1594/PANGAEA.891536,B,,-0.97,-0.66,1006.04,1008.9,34.089,1009.4,199.0,25.0,413.15,339.7,,,332.0,,330.5,330.528,4,2,9,9,9
2017-04-09T04:07:22.000Z,26NA20170409,66.541,-54.026,,6.0N,10.1594/PANGAEA.891536,B,,-0.882,-0.55,1006.01,1008.7,34.089,1009.4,199.0,25.0,413.149,342.2,,,334.0,,332.5,332.521,4,2,9,9,9
2017-04-09T04:08:53.000Z,26NA20170409,66.534,-54.029,,6.0N,10.1594/PANGAEA.891536,B,,-0.873,-0.53,1005.95,1008.8,34.089,1009.4,199.0,25.0,413.149,344.2,,,335.8,,334.4,334.313,4,2,9,9,9
2017-04-09T04:10:23.000Z,26NA20170409,66.527,-54.031,,6.0N,10.1594/PANGAEA.891536,B,,-0.635,-0.35,1005.85,1008.6,34.089,1009.4,199.0,25.0,413.149,345.3,,,337.7,,336.2,336.21,4,2,9,9,9
2017-04-09T04:11:54.000Z,26NA20170409,66.52,-54.032,,6.0N,10.1594/PANGAEA.891536,B,,-0.271,-0.16,1005.78,1008.7,34.089,1009.4,198.0,24.0,413.149,348.2,,,343.0,,341.5,341.494,4,2,9,9,9
2017-04-09T04:13:25.000Z,26NA20170409,66.513,-54.032,,6.0N,10.1594/PANGAEA.891536,B,,-0.375,0.05,1005.7,1008.5,34.089,1009.4,192.0,24.0,413.149,352.2,,,342.2,,340.8,340.695,4,2,9,9,9
2017-04-09T04:14:56.000Z,26NA20170409,66.506,-54.031,,6.0N,10.1594/PANGAEA.891536,B,,-0.362,-0.02,1005.67,1008.5,34.089,1009.4,179.0,24.0,413.148,353.7,,,345.0,,343.5,343.483,4,2,9,9,9
2017-04-09T04:16:26.000Z,26NA20170409,66.499,-54.032,,6.0N,10.1594/PANGAEA.891536,B,,-0.387,-0.02,1005.59,1008.6,34.089,1009.4,166.0,24.0,413.148,354.0,,,344.9,,343.4,343.383,4,2,9,9,9
2017-04-09T04:17:57.000Z,26NA20170409,66.492,-54.033,,6.0N,10.1594/PANGAEA.891536,B,,-0.428,-0.08,1005.7,1008.7,34.089,1009.4,153.0,24.0,413.148,354.2,,,345.4,,343.9,343.88,4,2,9,9,9
2017-04-09T04:19:27.000Z,26NA20170409,66.485,-54.034,,6.0N,10.1594/PANGAEA.891536,B,,-0.445,-0.08,1005.61,1008.6,34.089,1009.4,140.0,24.0,413.148,354.2,,,345.1,,343.6,343.581,4,2,9,9,9
2017-04-09T04:20:58.000Z,26NA20170409,66.478,-54.034,,6.0N,10.1594/PANGAEA.891536,B,,-0.517,-0.1,1005.59,1008.5,34.089,1009.4,130.0,24.0,413.148,353.8,,,343.9,,342.4,342.385,4,2,9,9,9
2017-04-09T04:22:29.000Z,26NA20170409,66.472,-54.035,,6.0N,10.1594/PANGAEA.891536,B,,-0.421,-0.15,1005.54,1008.6,34.089,1009.4,121.0,24.0,413.147,353.5,,,345.9,,344.4,344.378,4,2,9,9,9
2017-04-09T04:23:59.000Z,26NA20170409,66.465,-54.035,,6.0N,10.1594/PANGAEA.891536,B,,-0.253,-0.03,1005.46,1008.4,34.089,1009.4,112.0,24.0,413.147,352.8,,,345.7,,344.2,344.183,4,2,9,9,9
2017-04-09T04:25:30.000Z,26NA20170409,66.458,-54.036,,6.0N,10.1594/PANGAEA.891536,B,,-0.125,0.16,1005.42,1008.3,34.089,1009.4,104.0,24.0,413.147,353.6,,,345.5,,344.0,343.986,4,2,9,9,9
2017-04-09T04:27:01.000Z,26NA20170409,66.45,-54.036,,6.0N,10.1594/PANGAEA.891536,B,,0.048,0.28,1005.38,1008.1,34.089,1009.4,95.0,24.0,413.147,355.4,,,348.0,,346.5,346.479,4,2,9,9,9
2017-04-09T04:28:31.000Z,26NA20170409,66.443,-54.036,,6.0N,10.1594/PANGAEA.891536,B,,-0.006,0.38,1005.34,1008.1,34.089,1009.4,87.0,24.0,413.147,358.0,,,348.2,,346.7,346.677,4,2,9,9,9
2017-04-09T04:30:02.000Z,26NA20170409,66.436,-54.037,,6.0N,10.1594/PANGAEA.891536,B,,0.077,0.35,1005.27,1007.9,34.089,1009.4,79.0,24.0,413.146,359.7,,,351.5,,350.0,349.965,4,2,9,9,9
2017-04-09T04:31:33.000Z,26NA20170409,66.429,-54.037,,6.0N,10.1594/PANGAEA.891536,B,,-0.092,0.33,1005.25,1008.0,34.089,1009.4,71.0,24.0,413.146,360.8,,,350.5,,348.9,348.965,4,2,9,9,9
2017-04-09T04:33:03.000Z,26NA20170409,66.422,-54.037,,6.0N,10.1594/PANGAEA.891536,B,,-0.048,0.27,1005.09,1008.1,34.089,1009.4,63.0,24.0,413.146,360.6,,,351.8,,350.3,350.26,4,2,9,9,9
2017-04-09T04:34:34.000Z,26NA20170409,66.415,-54.037,,6.0N,10.1594/PANGAEA.891536,B,,-0.067,0.3,1005.05,1008.0,34.089,1009.4,57.0,24.0,413.146,360.5,,,351.0,,349.5,349.464,4,2,9,9,9
2017-04-09T04:36:05.000Z,26NA20170409,66.408,-54.037,,6.0N,10.1594/PANGAEA.891536,B,,-0.21,0.24,1005.0,1007.8,34.089,1009.4,55.0,24.0,413.146,359.9,,,349.1,,347.6,347.569,4,2,9,9,9
2017-04-09T04:37:35.000Z,26NA20170409,66.401,-54.036,,6.0N,10.1594/PANGAEA.891536,B,,-0.221,0.15,1004.9,1007.9,34.089,1009.4,54.0,24.0,413.145,359.1,,,349.5,,348.0,347.967,4,2,9,9,9
2017-04-09T04:39:06.000Z,26NA20170409,66.394,-54.037,,6.0N,10.1594/PANGAEA.891536,B,,-0.236,0.13,1004.79,1007.7,34.089,1009.4,53.0,24.0,413.145,358.1,,,348.6,,347.1,347.071,4,2,9,9,9
2017-04-09T04:40:37.000Z,26NA20170409,66.387,-54.037,,6.0N,10.1594/PANGAEA.891536,B,,-0.215,0.13,1004.79,1007.7,34.089,1009.4,52.0,24.0,413.145,356.8,,,347.6,,346.1,346.076,4,2,9,9,9
2017-04-09T04:42:07.000Z,26NA20170409,66.379,-54.037,,6.0N,10.1594/PANGAEA.891536,B,,-0.292,0.13,1004.78,1007.5,34.089,1009.4,51.0,24.0,413.145,356.6,,,346.3,,344.8,344.78,4,2,9,9,9
2017-04-09T04:43:38.000Z,26NA20170409,66.372,-54.037,,6.0N,10.1594/PANGAEA.891536,B,,-0.685,-0.09,1004.67,1007.7,34.089,1009.4,51.0,24.0,413.145,356.4,,,343.6,,342.1,342.084,4,2,9,9,9
2017-04-09T04:45:09.000Z,26NA20170409,66.365,-54.037,,6.0N,10.1594/PANGAEA.891536,B,,-0.931,-0.41,1004.65,1007.5,34.089,1009.4,51.0,24.0,413.144,355.4,,,343.7,,342.2,342.179,4,2,9,9,9
2017-04-09T04:46:39.000Z,26NA20170409,66.358,-54.037,,6.0N,10.1594/PANGAEA.891536,B,,-1.342,-0.72,1004.63,1007.6,34.089,1009.4,51.0,24.0,413.144,353.1,,,340.1,,338.6,338.586,4,2,9,9,9
2017-04-09T04:48:10.000Z,26NA20170409,66.35,-54.037,,6.0N,10.1594/PANGAEA.891536,B,,-1.494,-1.03,1004.66,1007.4,34.089,1009.4,51.0,24.0,413.144,349.5,,,338.8,,337.3,337.289,4,2,9,9,9
2017-04-09T04:49:40.000Z,26NA20170409,66.343,-54.037,,6.0N,10.1594/PANGAEA.891536,B,,-1.568,-1.15,1004.61,1007.4,34.089,1009.4,51.0,24.0,413.144,346.6,,,336.7,,335.2,335.197,4,2,9,9,9
2017-04-09T04:51:11.000Z,26NA20170409,66.336,-54.037,,6.0N,10.1594/PANGAEA.891536,B,,-1.55,-1.18,1004.52,1007.4,34.089,1009.4,51.0,24.0,413.144,344.5,,,335.4,,333.9,333.903,4,2,9,9,9
2017-04-09T04:52:42.000Z,26NA20170409,66.329,-54.037,,6.0N,10.1594/PANGAEA.891536,B,,-1.532,-1.16,1004.5,1007.3,34.089,1009.4,51.0,24.0,413.143,343.4,,,334.2,,332.7,332.709,4,2,9,9,9
2017-04-09T04:54:12.000Z,26NA20170409,66.321,-54.037,,6.0N,10.1594/PANGAEA.891536,B,,-1.534,-1.16,1004.36,1007.3,34.089,1009.4,51.0,24.0,413.143,343.2,,,334.0,,332.5,332.51,4,2,9,9,9
2017-04-09T04:55:43.000Z,26NA20170409,66.314,-54.037,,6.0N,10.1594/PANGAEA.891536,B,,-1.504,-1.15,1004.37,1007.3,34.089,1009.4,51.0,24.0,413.143,342.9,,,333.9,,332.5,332.411,4,2,9,9,9
2017-04-09T04:57:14.000Z,26NA20170409,66.307,-54.037,,6.0N,10.1594/PANGAEA.891536,B,,-1.483,-1.11,1004.44,1007.4,34.089,1009.4,51.0,24.0,413.143,343.3,,,334.1,,332.6,332.61,4,2,9,9,9
2017-04-09T04:58:46.000Z,26NA20170409,66.299,-54.038,,6.0N,10.1594/PANGAEA.891536,B,,-1.463,-1.11,1004.36,1007.2,34.089,1009.4,51.0,24.0,413.143,343.3,,,334.3,,332.8,332.81,4,2,9,9,9
2017-04-09T05:00:17.000Z,26NA20170409,66.292,-54.038,,6.0N,10.1594/PANGAEA.891536,B,,-1.448,-1.06,1004.33,1007.2,34.089,1009.4,51.0,24.0,413.142,343.8,,,334.3,,332.8,332.81,4,2,9,9,9
2017-04-09T05:02:07.000Z,26NA20170409,66.283,-54.038,,6.0N,10.1594/PANGAEA.891536,B,,-1.439,-1.07,1004.32,1007.1,34.089,1009.4,51.0,24.0,413.142,344.2,,,335.0,,333.5,333.508,4,2,9,9,9
2017-04-09T05:03:38.000Z,26NA20170409,66.276,-54.038,,6.0N,10.1594/PANGAEA.891536,B,,-1.461,-1.08,1004.31,1007.3,34.089,1009.4,51.0,24.0,413.142,344.9,,,335.6,,334.1,334.104,4,2,9,9,9
2017-04-09T05:05:09.000Z,26NA20170409,66.269,-54.038,,6.0N,10.1594/PANGAEA.891536,B,,-1.479,-1.08,1004.34,1007.2,34.089,1009.4,51.0,24.0,413.142,345.2,,,335.5,,334.1,334.004,4,2,9,9,9
2017-04-09T05:06:39.000Z,26NA20170409,66.261,-54.039,,6.0N,10.1594/PANGAEA.891536,B,,-1.483,-1.09,1004.34,1007.2,34.089,1009.4,51.0,24.0,413.142,345.2,,,335.6,,334.1,334.104,4,2,9,9,9
2017-04-09T05:08:10.000Z,26NA20170409,66.254,-54.039,,6.0N,10.1594/PANGAEA.891536,B,,-1.543,-1.14,1004.32,1007.3,34.089,1009.4,51.0,24.0,413.141,345.6,,,335.9,,334.4,334.401,4,2,9,9,9
2017-04-09T05:09:41.000Z,26NA20170409,66.247,-54.04,,6.0N,10.1594/PANGAEA.891536,B,,-1.585,-1.2,1004.31,1007.1,34.089,1006.0,51.0,24.0,413.141,345.9,,,336.4,,334.9,334.898,4,2,9,9,9
2017-04-09T05:11:11.000Z,26NA20170409,66.24,-54.04,,6.0N,10.1594/PANGAEA.891536,B,,-1.602,-1.22,1004.3,1007.1,34.089,1006.0,51.0,24.0,413.141,345.9,,,336.4,,334.9,334.898,4,2,9,9,9
2017-04-09T05:12:42.000Z,26NA20170409,66.232,-54.04,,6.0N,10.1594/PANGAEA.891536,B,,-1.59,-1.22,1004.28,1007.1,34.089,1006.0,51.0,24.0,413.141,345.8,,,336.5,,335.0,334.998,4,2,9,9,9
2017-04-09T05:14:12.000Z,26NA20170409,66.225,-54.041,,6.0N,10.1594/PANGAEA.891536,B,,-1.589,-1.22,1004.28,1007.2,34.089,1006.0,51.0,24.0,413.141,345.7,,,336.5,,335.0,334.998,4,2,9,9,9
2017-04-09T05:15:43.000Z,26NA20170409,66.218,-54.041,,6.0N,10.1594/PANGAEA.891536,B,,-1.566,-1.21,1004.25,1007.1,34.089,1006.0,51.0,24.0,413.14,345.6,,,336.5,,335.0,334.998,4,2,9,9,9
2017-04-09T05:17:14.000Z,26NA20170409,66.21,-54.041,,6.0N,10.1594/PANGAEA.891536,B,,-1.572,-1.19,1004.2,1007.1,34.089,1006.0,51.0,24.0,413.14,345.8,,,336.4,,334.9,334.899,4,2,9,9,9
2017-04-09T05:18:46.000Z,26NA20170409,66.203,-54.041,,6.0N,10.1594/PANGAEA.891536,B,,-1.546,-1.2,1004.14,1007.0,34.089,1006.0,51.0,24.0,413.14,345.7,,,336.7,,335.2,335.198,4,2,9,9,9
2017-04-09T05:20:17.000Z,26NA20170409,66.196,-54.042,,6.0N,10.1594/PANGAEA.891536,B,,-1.543,-1.15,1004.09,1007.1,34.089,1006.0,51.0,24.0,413.14,345.6,,,336.0,,334.5,334.501,4,2,9,9,9
2017-04-09T05:21:48.000Z,26NA20170409,66.189,-54.04,,6.0N,10.1594/PANGAEA.891536,B,,-1.434,-1.13,1004.08,1006.9,34.089,1006.0,51.0,24.0,413.14,345.7,,,337.3,,335.8,335.798,4,2,9,9,9
2017-04-09T05:23:18.000Z,26NA20170409,66.181,-54.038,,6.0N,10.1594/PANGAEA.891536,B,,-1.295,-1.0,1004.04,1007.0,34.089,1006.0,51.0,24.0,413.139,346.2,,,337.9,,336.4,336.398,4,2,9,9,9
2017-04-09T05:24:49.000Z,26NA20170409,66.174,-54.036,,6.0N,10.1594/PANGAEA.891536,B,,-1.258,-0.92,1004.04,1006.9,34.089,1006.0,51.0,24.0,413.139,346.9,,,337.9,,336.4,336.399,4,2,9,9,9
2017-04-09T05:26:19.000Z,26NA20170409,66.167,-54.033,,6.0N,10.1594/PANGAEA.891536,B,,-1.241,-0.89,1004.0,1006.8,34.089,1006.0,51.0,24.0,413.139,347.2,,,338.0,,336.5,336.499,4,2,9,9,9
2017-04-09T05:27:50.000Z,26NA20170409,66.16,-54.031,,6.0N,10.1594/PANGAEA.891536,B,,-1.255,-0.88,1003.92,1006.8,34.089,1006.0,51.0,24.0,413.139,346.8,,,337.3,,335.8,335.802,4,2,9,9,9
2017-04-09T05:29:21.000Z,26NA20170409,66.153,-54.028,,6.0N,10.1594/PANGAEA.891536,B,,-1.201,-0.88,1003.92,1006.8,34.089,1006.0,51.0,24.0,413.139,346.8,,,338.1,,336.6,336.599,4,2,9,9,9
2017-04-09T05:30:52.000Z,26NA20170409,66.146,-54.025,,6.0N,10.1594/PANGAEA.891536,B,,-1.151,-0.82,1003.96,1006.8,34.089,1006.0,52.0,25.0,413.138,346.9,,,338.0,,336.5,336.501,4,2,9,9,9
2017-04-09T05:32:22.000Z,26NA20170409,66.139,-54.023,,6.0N,10.1594/PANGAEA.891536,B,,-1.165,-0.8,1003.88,1006.8,34.089,1006.0,54.0,25.0,413.138,347.8,,,338.3,,336.9,336.799,4,2,9,9,9
2017-04-09T05:33:53.000Z,26NA20170409,66.132,-54.02,,6.0N,10.1594/PANGAEA.891536,B,,-1.21,-0.79,1003.89,1006.7,34.089,1006.0,55.0,25.0,413.138,348.3,,,338.0,,336.5,336.5,4,2,9,9,9
2017-04-09T05:35:24.000Z,26NA20170409,66.125,-54.017,,6.0N,10.1594/PANGAEA.891536,B,,-1.236,-0.84,1003.86,1006.6,34.089,1006.0,57.0,25.0,413.138,348.6,,,338.7,,337.2,337.196,4,2,9,9,9
2017-04-09T05:36:56.000Z,26NA20170409,66.118,-54.015,,6.0N,10.1594/PANGAEA.891536,B,,-1.308,-0.89,1003.84,1006.7,34.089,1006.0,59.0,25.0,413.138,348.2,,,338.0,,336.5,336.498,4,2,9,9,9
2017-04-09T05:38:26.000Z,26NA20170409,66.111,-54.012,,6.0N,10.1594/PANGAEA.891536,B,,-1.343,-0.93,1003.73,1006.8,34.089,1006.0,62.0,26.0,413.137,347.6,,,337.5,,336.0,335.999,4,2,9,9,9
2017-04-09T05:39:57.000Z,26NA20170409,66.104,-54.01,,6.0N,10.1594/PANGAEA.891536,B,,-1.397,-0.96,1003.79,1006.7,34.089,1006.0,66.0,26.0,413.137,346.3,,,335.9,,334.4,334.405,4,2,9,9,9
2017-04-09T05:41:28.000Z,26NA20170409,66.097,-54.007,,6.0N,10.1594/PANGAEA.891536,B,,-1.361,-1.01,1003.73,1006.7,34.089,1006.0,70.0,26.0,413.137,345.6,,,336.5,,335.0,335.003,4,2,9,9,9
2017-04-09T05:45:55.000Z,26NA20170409,66.076,-54.0,,6.0N,10.1594/PANGAEA.891536,B,,-1.33,-0.96,1003.77,1006.6,35.0,1006.0,78.0,27.0,413.136,,,,,,,,0,9,9,9,9
2017-04-09T05:50:23.000Z,26NA20170409,66.056,-53.99,,6.0N,10.1594/PANGAEA.891536,B,,-1.312,-0.96,1003.49,1006.6,35.0,1006.0,78.0,27.0,413.136,,,,,,,,0,9,9,9,9
2017-04-09T05:54:50.000Z,26NA20170409,66.035,-53.981,,6.0N,10.1594/PANGAEA.891536,B,,-1.23,-0.87,1003.36,1006.5,35.0,1006.0,75.0,28.0,413.135,,,,,,,,0,9,9,9,9
2017-04-09T05:59:18.000Z,26NA20170409,66.015,-53.971,,6.0N,10.1594/PANGAEA.891536,B,,-1.242,-0.91,1003.44,1006.4,35.0,1006.0,68.0,28.0,413.135,,,,,,,,0,9,9,9,9
2017-04-09T06:03:45.000Z,26NA20170409,65.994,-53.961,,6.0N,10.1594/PANGAEA.891536,B,,-1.266,-0.87,1003.58,1006.6,33.505,1004.0,69.0,29.0,413.134,,,,,,,,0,9,9,9,9
2017-04-09T06:05:33.000Z,26NA20170409,65.986,-53.957,,6.0N,10.1594/PANGAEA.891536,B,,-1.253,-0.9,1003.52,1006.5,33.505,1004.0,69.0,29.0,413.134,,,,,,,,0,9,9,9,9
2017-04-09T06:07:01.000Z,26NA20170409,65.979,-53.954,,6.0N,10.1594/PANGAEA.891536,B,,-1.243,-0.88,1003.5,1006.4,33.505,1004.0,70.0,29.0,413.134,,,,,,,,0,9,9,9,9
2017-04-09T06:08:29.000Z,26NA20170409,65.973,-53.95,,6.0N,10.1594/PANGAEA.891536,B,,-1.05,-0.83,1003.5,1006.4,33.505,1004.0,70.0,29.0,413.134,,,,,,,,0,9,9,9,9
2017-04-09T06:09:57.000Z,26NA20170409,65.966,-53.945,,6.0N,10.1594/PANGAEA.891536,B,,-0.761,-0.56,1003.47,1006.4,33.505,1004.0,71.0,29.0,413.133,,,,,,,,0,9,9,9,9
2017-04-09T06:14:51.000Z,26NA20170409,65.944,-53.93,,6.0N,10.1594/PANGAEA.891536,B,,-1.317,-0.79,1003.28,1006.1,33.505,1004.0,74.0,30.0,413.133,351.9,,,339.8,,338.3,338.29,4,2,9,9,9
2017-04-09T06:16:23.000Z,26NA20170409,65.937,-53.925,,6.0N,10.1594/PANGAEA.891536,B,,-1.327,-0.94,1003.09,1006.1,33.505,1004.0,75.0,30.0,413.133,350.9,,,340.9,,339.4,339.385,4,2,9,9,9
2017-04-09T06:17:53.000Z,26NA20170409,65.93,-53.92,,6.0N,10.1594/PANGAEA.891536,B,,-1.273,-0.9,1003.17,1006.0,33.505,1004.0,76.0,30.0,413.132,349.5,,,339.6,,338.1,338.092,4,2,9,9,9
2017-04-09T06:19:24.000Z,26NA20170409,65.923,-53.915,,6.0N,10.1594/PANGAEA.891536,B,,-1.247,-0.88,1002.98,1006.0,33.505,1004.0,77.0,30.0,413.132,348.9,,,339.2,,337.7,337.695,4,2,9,9,9
2017-04-09T06:20:56.000Z,26NA20170409,65.916,-53.911,,6.0N,10.1594/PANGAEA.891536,B,,-1.26,-0.88,1002.98,1006.1,33.505,1004.0,78.0,30.0,413.132,348.9,,,339.0,,337.5,337.495,4,2,9,9,9
2017-04-09T06:22:27.000Z,26NA20170409,65.91,-53.906,,6.0N,10.1594/PANGAEA.891536,B,,-1.257,-0.88,1003.05,1006.2,33.505,1004.0,79.0,30.0,413.132,348.3,,,338.5,,337.0,336.997,4,2,9,9,9
2017-04-09T06:23:57.000Z,26NA20170409,65.903,-53.901,,6.0N,10.1594/PANGAEA.891536,B,,-1.257,-0.89,1003.23,1006.2,33.505,1004.0,81.0,30.0,413.132,348.3,,,338.6,,337.1,337.097,4,2,9,9,9
2017-04-09T06:25:28.000Z,26NA20170409,65.896,-53.896,,6.0N,10.1594/PANGAEA.891536,B,,-1.254,-0.87,1003.16,1006.0,33.505,1004.0,82.0,30.0,413.131,348.5,,,338.5,,337.0,336.997,4,2,9,9,9
2017-04-09T06:26:59.000Z,26NA20170409,65.889,-53.891,,6.0N,10.1594/PANGAEA.891536,B,,-1.251,-0.89,1003.14,1006.0,33.505,1004.0,83.0,30.0,413.131,348.7,,,339.0,,337.5,337.495,4,2,9,9,9
2017-04-09T06:28:29.000Z,26NA20170409,65.883,-53.886,,6.0N,10.1594/PANGAEA.891536,B,,-1.186,-0.87,1003.17,1006.1,33.505,1004.0,85.0,30.0,413.131,348.5,,,339.5,,338.0,337.994,4,2,9,9,9
2017-04-09T06:30:00.000Z,26NA20170409,65.876,-53.88,,6.0N,10.1594/PANGAEA.891536,B,,-0.727,-0.64,1003.1,1006.1,33.505,1004.0,85.0,31.0,413.131,349.0,,,343.3,,341.8,341.787,4,2,9,9,9
2017-04-09T06:31:31.000Z,26NA20170409,65.87,-53.875,,6.0N,10.1594/PANGAEA.891536,B,,-0.456,-0.25,1003.19,1006.0,33.505,1004.0,85.0,31.0,413.131,350.4,,,342.9,,341.4,341.394,4,2,9,9,9
2017-04-09T06:33:01.000Z,26NA20170409,65.863,-53.869,,6.0N,10.1594/PANGAEA.891536,B,,-0.387,-0.07,1003.19,1006.0,33.505,1004.0,86.0,31.0,413.13,353.1,,,343.9,,342.4,342.391,4,2,9,9,9
2017-04-09T06:34:32.000Z,26NA20170409,65.856,-53.864,,6.0N,10.1594/PANGAEA.891536,B,,-0.372,-0.03,1003.09,1005.9,33.505,1004.0,87.0,31.0,413.13,354.4,,,344.7,,343.2,343.188,4,2,9,9,9
2017-04-09T06:36:03.000Z,26NA20170409,65.85,-53.858,,6.0N,10.1594/PANGAEA.891536,B,,-0.385,-0.02,1003.12,1006.0,33.505,1004.0,88.0,31.0,413.13,355.6,,,345.6,,344.1,344.084,4,2,9,9,9
2017-04-09T06:37:33.000Z,26NA20170409,65.843,-53.852,,6.0N,10.1594/PANGAEA.891536,B,,-0.394,-0.03,1003.05,1006.0,33.505,1004.0,87.0,31.0,413.13,356.4,,,346.4,,344.9,344.88,4,2,9,9,9
2017-04-09T06:39:04.000Z,26NA20170409,65.837,-53.847,,6.0N,10.1594/PANGAEA.891536,B,,-0.386,-0.03,1003.18,1005.9,33.505,1004.0,87.0,31.0,413.13,357.0,,,347.1,,345.6,345.577,4,2,9,9,9
2017-04-09T06:40:36.000Z,26NA20170409,65.83,-53.841,,6.0N,10.1594/PANGAEA.891536,B,,-0.379,-0.03,1003.0,1005.9,33.505,1004.0,87.0,31.0,413.13,357.2,,,347.3,,345.8,345.777,4,2,9,9,9
2017-04-09T06:42:07.000Z,26NA20170409,65.823,-53.836,,6.0N,10.1594/PANGAEA.891536,B,,-0.381,-0.01,1002.99,1006.0,33.505,1004.0,87.0,31.0,413.129,357.6,,,347.5,,345.9,345.976,4,2,9,9,9
2017-04-09T06:43:37.000Z,26NA20170409,65.817,-53.83,,6.0N,10.1594/PANGAEA.891536,B,,-0.392,-0.02,1002.94,1005.8,33.505,1004.0,87.0,31.0,413.129,357.6,,,347.3,,345.8,345.777,4,2,9,9,9
2017-04-09T06:45:08.000Z,26NA20170409,65.81,-53.824,,6.0N,10.1594/PANGAEA.891536,B,,-0.375,-0.02,1002.92,1005.8,33.505,1004.0,85.0,31.0,413.129,357.5,,,347.5,,346.0,345.976,4,2,9,9,9
2017-04-09T06:46:39.000Z,26NA20170409,65.804,-53.819,,6.0N,10.1594/PANGAEA.891536,B,,-0.351,-0.005,1002.95,1005.8,33.505,1004.0,84.0,31.0,413.129,356.8,,,347.0,,345.5,345.479,4,2,9,9,9
2017-04-09T06:48:09.000Z,26NA20170409,65.797,-53.813,,6.0N,10.1594/PANGAEA.891536,B,,-0.338,0.01,1003.05,1005.8,33.505,1004.0,83.0,31.0,413.129,356.7,,,346.8,,345.3,345.28,4,2,9,9,9
2017-04-09T06:49:40.000Z,26NA20170409,65.791,-53.807,,6.0N,10.1594/PANGAEA.891536,B,,-0.26,0.07,1002.85,1005.7,33.505,1004.0,82.0,32.0,413.128,356.3,,,346.7,,345.2,345.182,4,2,9,9,9
2017-04-09T06:51:11.000Z,26NA20170409,65.784,-53.802,,6.0N,10.1594/PANGAEA.891536,B,,-0.249,0.11,1002.87,1005.9,33.505,1004.0,82.0,32.0,413.128,356.4,,,346.4,,344.9,344.883,4,2,9,9,9
2017-04-09T06:52:42.000Z,26NA20170409,65.778,-53.796,,6.0N,10.1594/PANGAEA.891536,B,,-0.233,0.12,1002.82,1005.7,33.505,1004.0,83.0,32.0,413.128,356.4,,,346.4,,344.9,344.884,4,2,9,9,9
2017-04-09T06:54:12.000Z,26NA20170409,65.772,-53.79,,6.0N,10.1594/PANGAEA.891536,B,,-0.214,0.13,1002.95,1005.9,33.505,1004.0,85.0,32.0,413.128,356.8,,,347.0,,345.5,345.481,4,2,9,9,9
2017-04-09T06:55:43.000Z,26NA20170409,65.765,-53.784,,6.0N,10.1594/PANGAEA.891536,B,,-0.263,0.14,1002.98,1005.8,33.505,1004.0,88.0,32.0,413.128,357.0,,,346.3,,344.8,344.784,4,2,9,9,9
2017-04-09T06:57:14.000Z,26NA20170409,65.758,-53.779,,6.0N,10.1594/PANGAEA.891536,B,,-0.395,0.06,1002.9,1005.9,33.505,1004.0,91.0,32.0,413.128,357.3,,,345.9,,344.4,344.383,4,2,9,9,9
2017-04-09T06:58:46.000Z,26NA20170409,65.752,-53.773,,6.0N,10.1594/PANGAEA.891536,B,,-0.431,-0.06,1003.0,1006.0,33.505,1004.0,94.0,32.0,413.127,357.5,,,347.3,,345.8,345.775,4,2,9,9,9